Regional Weather Roundup
Issued by NWS Newport/Morehead, NC

Current Version | Previous Version | Text Only | Print | Product List | Glossary Off
Versions: 1 2 3 4 5 6 7 8 9 10 11 12 13 14 15 16 17 18 19 20 21 22 23 24 25 26 27 28 29 30 31 32 33 34 35 36 37 38 39 40 41 42 43 44 45 46 47 48 49 50
000 ASUS42 KMHX 041625 RWRMHX WEATHER ROUNDUP FOR EASTERN NORTH CAROLINA NATIONAL WEATHER SERVICE NEWPORT/MOREHEAD CITY NC 1200 PM EDT SAT JUL 04 2015 NOTE: "FAIR" INDICATES FEW OR NO CLOUDS BELOW 12,000 FEET WITH NO SIGNIFICANT WEATHER AND/OR OBSTRUCTIONS TO VISIBILITY NCZ015>017-031-032-045>047-102-103-041700- NORTH COAST CITY SKY/WX TMP DP RH WIND PRES REMARKS EDENTON N/A 85 71 61 W12G18 29.94F ELIZABETH CITY MOSUNNY 83 71 67 SW14G22 29.94R KITTY HAWK SUNNY 87 71 58 SW10G22 29.94S MANTEO MOSUNNY 85 70 61 W14G25 29.95F $$ NCZ045>047-081-094-103-104-041700- CENTRAL COAST CITY SKY/WX TMP DP RH WIND PRES REMARKS FRISCO MOSUNNY 83 73 72 SW12 29.99S SWANQUARTER N/A 86 N/A N/A W6G14 29.94S $$ NCZ095-097-098-100-101-041700- SOUTHERN COAST CITY SKY/WX TMP DP RH WIND PRES REMARKS BEAUFORT SUNNY 85 71 63 SW23 30.01R CEDAR ISLAND N/A 90 N/A N/A SW12G21 30.03S JACKSONVILLE PTSUNNY 82 68 62 SW14G21 30.01R PINEY ISLAND SUNNY N/A N/A N/A W18G28 29.98S WILMINGTON PTSUNNY 87 68 52 SW15G25 30.03R $$ NCZ011>013-027>030-043-044-078>080-089-090>093-098-041700- COASTAL PLAIN CITY SKY/WX TMP DP RH WIND PRES REMARKS AHOSKIE MOSUNNY N/A N/A N/A NW5 29.94S CLINTON PTSUNNY 83 71 66 SW8G18 30.01R ELIZABETHTOWN CLOUDY 82 68 62 SW12G17 30.04R GOLDSBORO MOSUNNY 86 72 62 W14G20 29.96R GREENVILLE MOSUNNY 86 73 66 W9 29.98S HAVELOCK MOSUNNY 88 69 53 SW15 30.00S KENANSVILLE PTSUNNY 84 68 59 SW7 30.01S KINSTON MOSUNNY 88 70 55 SW14G22 29.99R NEW BERN SUNNY 87 70 56 W13G22 30.00R RICHLANDS PTSUNNY 84 68 58 SW15 30.01S ROCKY MOUNT PTSUNNY 85 69 58 W14G20 29.97R WASHINGTON SUNNY 86 73 65 SW14G22 29.97R WHITEVILLE CLOUDY 83 69 64 SW12 30.04S $$ AMZ130-135-150-152-154-156-158-170-250-252-270-ANZ085-086-088-633-658-670-041700- MARINE OBSERVATIONS STATION/POSITION TIME TEMP WIND PRES WAVE SWELL AIR SEA DIR/SP/G HT/PER HT/PER (UTC) (F) (DEG/KT/KT) (MB) (FT/S) (FT/S) CHESAPEAKE LIGHT 1600 77 270/ 7/ 8 1013.9 64 E VA BEACH 1550 77 76 260/ 17/ 21 1012.7 7/ 8 2/15 DUCK 1600 81 67 250/ 17/ 24 N/A 2 E DUCK 1511 75 N/A 2/15 2/15 OREGON INLET 1600 83 80 240/ 16/ 19 1014.4 13E OREGON INLT 1600 70 N/A 4/ 7 HATTERAS CG 1600 81 77 220/ 13/ 18 1015.3 DIAMOND BUOY 1550 81 81 240/ 25/ 31 1015.4 6/ 7 3/13 CAPE LOOKOUT 1600 83 220/ 11/ 16 1016.3 BEAUFORT LAB 1600 84 80 230/ 9/ 16 1015.7 30 SE NEW RVR IN 1508 81 79 250/ 16/ 21 1017.2 27 SE WRIGHTSVLE 1600 80 240/ 16/ 19 N/A 5 SE WRIGHTSVLE 1508 82 78 250/ 12/ 16 1016.8 225 S CAPE HAT 1550 82 80 230/ 12/ 16 1021.3 6/ 7 5/ 7 41 SE CHARLESTON 1550 81 82 240/ 12/ 12 1018.5 4/ 6 3/ 6 $$

USA.gov is the U.S. government's official web portal to all federal, state and local government web resources and services.